Cartersville, GA

9:05 AM EDT on September 26, 2017 (GMT -0400)
Cartersville

Weather History for KVPC - November, 2011

Change the Weather History Date:

Monday, November 21, 2011

  Actual Average Record
Temperature  
Mean Temperature 64 °F 49 °F  
Max Temperature 72 °F 62 °F 73 °F (2007)
Min Temperature 57 °F 37 °F 23 °F (2008)
Degree Days  
Heating Degree Days 0 16  
Month to date heating degree days 262  
Since 1 July heating degree days 454  
Growing Degree Days 14 (Base 50)    
Moisture  
Dew Point 59 °F    
Average Humidity 93    
Maximum Humidity 100    
Minimum Humidity 71    
Precipitation  
Precipitation 0.00 in 0.15 in 2.30 in (1973)
Month to date precipitation 2.62  
Year to date precipitation 44.23  
Snow  
Snow 0.00 in - - ()
Month to date snowfall  
Since 1 July snowfall  
Since 1 September snowfall  
Snow Depth -    
Sea Level Pressure  
Sea Level Pressure 30.24 in    
Wind  
Wind Speed 0 mph (East)    
Max Wind Speed 6 mph    
Max Gust Speed -    
Visibility 5 miles    
Events Fog    
T = Trace of Precipitation, MM = Missing Value Source: NWS Daily Summary

Daily Weather History Graph

Daily Weather History Graph

Search for Another Location

Airport or City:

Trip Planner

Search our weather history database for the weather conditions in past years. The results will help you decide how hot, cold, wet, or windy it might be!

Date:

Astronomy

Nov. 21, 2011 Rise Set
Actual Time 7:17 AM EST 5:32 PM EST
Civil Twilight 6:50 AM EST 5:59 PM EST
Nautical Twilight 6:20 AM EST 6:30 PM EST
Astronomical Twilight 5:50 AM EST 6:59 PM EST
Moon 3:04 AM EST (11/21) 2:46 PM EST (11/21)
Length of Visible Light 11h 08m
Length of Day
10h 15m
Waning Crescent, 18% of the Moon is Illuminated
Nov 21
Waning Crescent
Nov 25
New
Dec 2
First Quarter
Dec 10
Full
Dec 17
Last Quarter

Hourly Weather History & Observations

Time (EST) Temp. Dew Point Humidity Pressure Visibility Wind Dir Wind Speed Gust Speed Precip Events Conditions
12:13 AM 59.0 °F 57.2 °F 94% 30.26 in 1.2 mi Calm Calm - N/A   Partly Cloudy
12:30 AM 59.0 °F 57.2 °F 94% 30.26 in 1.0 mi Calm Calm - N/A   Mist
12:37 AM 57.2 °F 57.2 °F 100% 30.26 in 0.2 mi Calm Calm - N/A Fog Fog
12:51 AM 57.2 °F 57.2 °F 100% 30.26 in 0.8 mi Calm Calm - N/A   Mist
12:53 AM 57.9 °F 57.9 °F 100% 30.24 in 0.8 mi Calm Calm - N/A   Mostly Cloudy
1:06 AM 57.2 °F 57.2 °F 100% 30.26 in 0.8 mi Calm Calm - N/A   Overcast
1:14 AM 57.2 °F 57.2 °F 100% 30.26 in 1.5 mi Calm Calm - N/A   Overcast
1:53 AM 57.0 °F 57.0 °F 100% 30.24 in 1.0 mi Calm Calm - N/A   Mostly Cloudy
2:17 AM 57.2 °F 57.2 °F 100% 30.25 in 2.5 mi Calm Calm - N/A   Overcast
2:38 AM 59.0 °F 57.2 °F 94% 30.25 in 4.0 mi Calm Calm - N/A   Overcast
2:53 AM 59.0 °F 57.9 °F 96% 30.23 in 4.0 mi Calm Calm - N/A   Overcast
3:53 AM 59.0 °F 57.9 °F 96% 30.22 in 4.0 mi ENE 3.5 mph - N/A   Overcast
4:02 AM 59.0 °F 57.2 °F 94% 30.25 in 5.0 mi Calm Calm - N/A   Overcast
4:53 AM 59.0 °F 57.9 °F 96% 30.24 in 4.0 mi Calm Calm - N/A   Overcast
5:06 AM 59.0 °F 57.2 °F 94% 30.27 in 4.0 mi Calm Calm - N/A   Overcast
5:50 AM 59.0 °F 57.2 °F 94% 30.28 in 3.0 mi Calm Calm - N/A   Overcast
5:53 AM 59.0 °F 57.9 °F 96% 30.26 in 3.0 mi Calm Calm - N/A   Overcast
6:08 AM 59.0 °F 57.2 °F 94% 30.28 in 2.0 mi Calm Calm - N/A   Overcast
6:15 AM 59.0 °F 57.2 °F 94% 30.28 in 1.0 mi Calm Calm - N/A   Overcast
6:44 AM 59.0 °F 59.0 °F 100% 30.28 in 1.2 mi Calm Calm - N/A   Overcast
6:53 AM 59.0 °F 59.0 °F 100% 30.26 in 1.5 mi Calm Calm - N/A   Overcast
7:06 AM 59.0 °F 59.0 °F 100% 30.29 in 2.5 mi Calm Calm - N/A   Overcast
7:15 AM 59.0 °F 59.0 °F 100% 30.29 in 2.5 mi Calm Calm - N/A   Overcast
7:31 AM 59.0 °F 59.0 °F 100% 30.28 in 1.5 mi ESE 3.5 mph - N/A   Overcast
7:53 AM 60.1 °F 59.0 °F 96% 30.26 in 1.2 mi Calm Calm - N/A   Overcast
8:32 AM 60.8 °F 60.8 °F 100% 30.30 in 0.5 mi Calm Calm - N/A Fog Fog
8:53 AM 60.1 °F 60.1 °F 100% 30.28 in 0.8 mi Calm Calm - N/A   Overcast
9:06 AM 60.8 °F 60.8 °F 100% 30.30 in 1.2 mi Calm Calm - N/A   Overcast
9:18 AM 60.8 °F 60.8 °F 100% 30.30 in 3.0 mi Calm Calm - N/A   Overcast
9:53 AM 63.0 °F 62.1 °F 97% 30.28 in 5.0 mi Calm Calm - N/A   Overcast
10:44 AM 66.2 °F 62.6 °F 88% 30.30 in 9.0 mi Calm Calm - N/A   Scattered Clouds
10:53 AM 68.0 °F 62.1 °F 81% 30.27 in 9.0 mi Calm Calm - N/A   Partly Cloudy
11:53 AM 69.1 °F 62.1 °F 78% 30.25 in 9.0 mi North 3.5 mph - N/A   Scattered Clouds
12:15 PM 69.8 °F 62.6 °F 78% 30.26 in 10.0 mi NNE 3.5 mph - N/A   Mostly Cloudy
12:35 PM 71.6 °F 62.6 °F 73% 30.25 in 10.0 mi Calm Calm - N/A   Scattered Clouds
12:53 PM 71.1 °F 63.0 °F 75% 30.22 in 10.0 mi Calm Calm - N/A   Scattered Clouds
2:53 PM 72.0 °F 62.1 °F 71% 30.18 in 10.0 mi Calm Calm - N/A   Clear
3:53 PM 72.0 °F 63.0 °F 73% 30.16 in 10.0 mi Calm Calm - N/A   Partly Cloudy
4:53 PM 70.0 °F 64.0 °F 81% 30.16 in 10.0 mi Calm Calm - N/A   Clear
5:53 PM 66.0 °F 64.0 °F 93% 30.16 in 10.0 mi Calm Calm - N/A   Clear
6:53 PM 66.0 °F 61.0 °F 84% 30.15 in 10.0 mi SSE 5.8 mph - N/A   Clear
7:53 PM 64.0 °F 60.1 °F 87% 30.14 in 10.0 mi SE 3.5 mph - N/A   Clear
8:53 PM 61.0 °F 60.1 °F 97% 30.14 in 9.0 mi Calm Calm - N/A   Clear
9:53 PM 60.1 °F 59.0 °F 96% 30.14 in 6.0 mi Calm Calm - N/A   Clear
10:53 PM 59.0 °F 57.9 °F 96% 30.14 in 7.0 mi Calm Calm - N/A   Clear
11:53 PM 59.0 °F 57.9 °F 96% 30.12 in 8.0 mi Variable 3.5 mph - N/A   Clear